• In Hungary
  • List of Countries
  • For 7 days
  • Water Temperature
  • Satellite Maps
  • Weather Map
  • News
  • Weather Widgets
  • user-avatar
    Login

    Hourly Weather Kota

    Today, 24 September, Sunday

    Time Temperature Precipitation Wind Pressure Humidity
    00:00 +29°C° 0 mm 3 mps 733 mmHg 61%
    01:00 +28°C° 0 mm 3 mps 733 mmHg 62%
    02:00 +28°C° 0 mm 3 mps 733 mmHg 64%
    03:00 +28°C° 0 mm 3 mps 733 mmHg 65%
    04:00 +27°C° 0 mm 3 mps 733 mmHg 66%
    05:00 +27°C° 0 mm 2 mps 733 mmHg 67%
    06:00 +28°C° 0 mm 3 mps 733 mmHg 64%
    07:00 +29°C° 0 mm 3 mps 734 mmHg 61%
    08:00 +30°C° 0 mm 3 mps 734 mmHg 58%
    09:00 +33°C° 0 mm 3 mps 734 mmHg 52%
    10:00 +35°C° 0 mm 3 mps 734 mmHg 46%
    11:00 +37°C° 0 mm 3 mps 735 mmHg 39%
    12:00 +37°C° 0 mm 3 mps 734 mmHg 36%
    13:00 +38°C° 0 mm 3 mps 733 mmHg 33%
    14:00 +39°C° 0 mm 2 mps 733 mmHg 31%
    15:00 +38°C° 0 mm 2 mps 733 mmHg 33%
    16:00 +37°C° 0 mm 2 mps 732 mmHg 36%
    17:00 +37°C° 0 mm 2 mps 732 mmHg 38%
    18:00 +35°C° 0 mm 3 mps 732 mmHg 41%
    19:00 +34°C° 0 mm 3 mps 733 mmHg 45%
    20:00 +33°C° 0 mm 3 mps 733 mmHg 48%
    21:00 +33°C° 0 mm 4 mps 733 mmHg 50%
    22:00 +32°C° 0 mm 4 mps 733 mmHg 53%
    23:00 +30°C° 0 mm 4 mps 733 mmHg 56%

    Tomorrow, 25 September, Monday

    Time Temperature Precipitation Wind Pressure Humidity
    00:00 +30°C° 0 mm 4 mps 732 mmHg 57%
    01:00 +30°C° 0 mm 4 mps 732 mmHg 57%
    02:00 +29°C° 0 mm 4 mps 732 mmHg 58%
    03:00 +29°C° 0 mm 4 mps 732 mmHg 59%
    04:00 +28°C° 0 mm 4 mps 732 mmHg 59%
    05:00 +28°C° 0 mm 3 mps 732 mmHg 59%
    06:00 +29°C° 0 mm 3 mps 732 mmHg 58%
    07:00 +30°C° 0 mm 3 mps 733 mmHg 56%
    08:00 +31°C° 0 mm 3 mps 733 mmHg 54%
    09:00 +34°C° 0 mm 3 mps 733 mmHg 49%
    10:00 +35°C° 0 mm 3 mps 733 mmHg 44%
    11:00 +37°C° 0 mm 3 mps 733 mmHg 39%
    12:00 +38°C° 0 mm 3 mps 733 mmHg 37%
    13:00 +38°C° 0 mm 3 mps 732 mmHg 34%
    14:00 +39°C° 0 mm 3 mps 731 mmHg 32%
    15:00 +38°C° 0 mm 2 mps 731 mmHg 34%
    16:00 +38°C° 0 mm 2 mps 731 mmHg 37%
    17:00 +37°C° 0 mm 2 mps 731 mmHg 39%
    18:00 +36°C° 0 mm 2 mps 731 mmHg 41%
    19:00 +35°C° 0 mm 3 mps 732 mmHg 43%
    20:00 +34°C° 0 mm 3 mps 732 mmHg 45%
    21:00 +33°C° 0 mm 3 mps 732 mmHg 48%
    22:00 +31°C° 0 mm 3 mps 732 mmHg 51%
    23:00 +30°C° 0 mm 4 mps 732 mmHg 53%

    Day after tomorrow, 26 September, Tuesday

    Time Temperature Precipitation Wind Pressure Humidity
    00:00 +30°C° 0 mm 4 mps 732 mmHg 56%
    01:00 +30°C° 0 mm 4 mps 732 mmHg 58%
    02:00 +29°C° 0 mm 4 mps 731 mmHg 60%
    03:00 +29°C° 0 mm 3 mps 731 mmHg 61%
    04:00 +28°C° 0 mm 3 mps 732 mmHg 63%
    05:00 +28°C° 0 mm 3 mps 732 mmHg 64%
    06:00 +29°C° 0 mm 3 mps 732 mmHg 62%
    07:00 +30°C° 0 mm 4 mps 733 mmHg 60%
    08:00 +32°C° 0 mm 4 mps 733 mmHg 57%
    09:00 +34°C° 0 mm 4 mps 734 mmHg 52%
    10:00 +36°C° 0 mm 3 mps 734 mmHg 46%
    11:00 +37°C° 0 mm 3 mps 734 mmHg 40%
    12:00 +38°C° 0 mm 3 mps 733 mmHg 37%
    13:00 +39°C° 0 mm 3 mps 732 mmHg 33%
    14:00 +39°C° 0 mm 3 mps 732 mmHg 30%
    15:00 +39°C° 0 mm 2 mps 732 mmHg 32%
    16:00 +38°C° 0 mm 2 mps 732 mmHg 34%
    17:00 +37°C° 0 mm 2 mps 731 mmHg 36%
    18:00 +36°C° 0 mm 2 mps 732 mmHg 38%
    19:00 +35°C° 0 mm 2 mps 732 mmHg 39%
    20:00 +34°C° 0 mm 2 mps 733 mmHg 40%
    21:00 +32°C° 0 mm 2 mps 733 mmHg 42%
    22:00 +33°C° 0 mm 3 mps 733 mmHg 44%
    23:00 +31°C° 0 mm 3 mps 733 mmHg 47%

    27 September, Wednesday

    Time Temperature Precipitation Wind Pressure Humidity
    00:00 +31°C° 0 mm 3 mps 732 mmHg 49%
    01:00 +30°C° 0 mm 3 mps 732 mmHg 51%
    02:00 +29°C° 0 mm 3 mps 732 mmHg 54%
    03:00 +29°C° 0 mm 3 mps 732 mmHg 55%
    04:00 +29°C° 0 mm 3 mps 732 mmHg 56%
    05:00 +28°C° 0 mm 3 mps 732 mmHg 57%
    06:00 +29°C° 0 mm 3 mps 733 mmHg 55%
    07:00 +30°C° 0 mm 4 mps 733 mmHg 53%
    08:00 +32°C° 0 mm 4 mps 734 mmHg 52%
    09:00 +34°C° 0 mm 4 mps 734 mmHg 46%
    10:00 +36°C° 0 mm 4 mps 734 mmHg 40%
    11:00 +38°C° 0 mm 4 mps 734 mmHg 35%
    12:00 +39°C° 0 mm 3 mps 733 mmHg 32%
    13:00 +39°C° 0 mm 3 mps 732 mmHg 29%
    14:00 +40°C° 0 mm 3 mps 731 mmHg 26%
    15:00 +39°C° 0 mm 2 mps 731 mmHg 28%
    16:00 +38°C° 0 mm 2 mps 731 mmHg 30%
    17:00 +37°C° 0 mm 1 mps 731 mmHg 32%
    18:00 +37°C° 0 mm 2 mps 732 mmHg 32%
    19:00 +35°C° 0 mm 2 mps 732 mmHg 33%
    20:00 +34°C° 0 mm 2 mps 732 mmHg 34%
    21:00 +34°C° 0 mm 2 mps 732 mmHg 35%
    22:00 +32°C° 0 mm 2 mps 732 mmHg 37%
    23:00 +31°C° 0 mm 3 mps 732 mmHg 38%

    28 September, Thursday

    Time Temperature Precipitation Wind Pressure Humidity
    00:00 +31°C° 0 mm 3 mps 732 mmHg 40%
    01:00 +30°C° 0 mm 3 mps 731 mmHg 42%
    02:00 +30°C° 0 mm 3 mps 731 mmHg 44%
    03:00 +29°C° 0 mm 3 mps 731 mmHg 45%
    04:00 +29°C° 0 mm 2 mps 731 mmHg 46%
    05:00 +28°C° 0 mm 2 mps 731 mmHg 47%
    06:00 +30°C° 0 mm 3 mps 732 mmHg 46%
    07:00 +31°C° 0 mm 3 mps 732 mmHg 45%
    08:00 +33°C° 0 mm 3 mps 733 mmHg 44%
    09:00 +35°C° 0 mm 4 mps 733 mmHg 40%
    10:00 +37°C° 0 mm 4 mps 733 mmHg 35%
    11:00 +40°C° 0 mm 4 mps 733 mmHg 30%
    12:00 +40°C° 0 mm 4 mps 732 mmHg 28%
    13:00 +41°C° 0 mm 4 mps 731 mmHg 26%
    14:00 +41°C° 0 mm 4 mps 731 mmHg 24%
    15:00 +40°C° 0 mm 3 mps 731 mmHg 26%
    16:00 +39°C° 0 mm 3 mps 731 mmHg 28%
    17:00 +38°C° 0 mm 2 mps 731 mmHg 30%
    18:00 +37°C° 0 mm 2 mps 731 mmHg 31%
    19:00 +35°C° 0 mm 3 mps 731 mmHg 32%
    20:00 +34°C° 0 mm 3 mps 732 mmHg 33%
    21:00 +33°C° 0 mm 3 mps 732 mmHg 34%
    22:00 +33°C° 0 mm 3 mps 732 mmHg 35%
    23:00 +31°C° 0 mm 3 mps 732 mmHg 36%

    29 September, Friday

    Time Temperature Precipitation Wind Pressure Humidity
    00:00 +31°C° 0 mm 3 mps 731 mmHg 38%
    01:00 +30°C° 0 mm 3 mps 731 mmHg 40%
    02:00 +29°C° 0 mm 3 mps 731 mmHg 42%
    03:00 +29°C° 0 mm 2 mps 731 mmHg 43%
    04:00 +29°C° 0 mm 2 mps 731 mmHg 43%
    05:00 +28°C° 0 mm 2 mps 731 mmHg 43%
    06:00 +29°C° 0 mm 3 mps 731 mmHg 42%
    07:00 +30°C° 0 mm 3 mps 732 mmHg 41%
    08:00 +32°C° 0 mm 4 mps 733 mmHg 40%
    09:00 +34°C° 0 mm 4 mps 733 mmHg 37%
    10:00 +37°C° 0 mm 4 mps 732 mmHg 33%
    11:00 +40°C° 0 mm 4 mps 732 mmHg 29%
    12:00 +40°C° 0 mm 4 mps 732 mmHg 27%
    13:00 +41°C° 0 mm 4 mps 731 mmHg 25%
    14:00 +42°C° 0 mm 4 mps 730 mmHg 23%
    15:00 +40°C° 0 mm 3 mps 730 mmHg 25%
    16:00 +39°C° 0 mm 2 mps 730 mmHg 27%
    17:00 +38°C° 0 mm 2 mps 730 mmHg 29%
    18:00 +37°C° 0 mm 2 mps 730 mmHg 30%
    19:00 +35°C° 0 mm 2 mps 731 mmHg 31%
    20:00 +34°C° 0 mm 3 mps 731 mmHg 32%
    21:00 +33°C° 0 mm 3 mps 731 mmHg 33%
    22:00 +33°C° 0 mm 3 mps 731 mmHg 34%
    23:00 +31°C° 0 mm 3 mps 732 mmHg 35%
    Show more